Cheyenne, WY

8:05 PM MDT on March 24, 2017 (GMT -0600)
Cheyenne

Weather History for KCYS - January, 2014

Change the Weather History Date:

Wednesday, January 1, 2014

  Actual Average Record
Temperature  
Mean Temperature 25 °F 28 °F  
Max Temperature 39 °F 39 °F 60 °F (1882)
Min Temperature 10 °F 18 °F -18 °F (1911)
Degree Days  
Heating Degree Days 40 37  
Month to date heating degree days 40 37  
Since 1 July heating degree days 2940 2940  
Cooling Degree Days 0 0  
Month to date cooling degree days 0 0  
Year to date cooling degree days 0 0  
Moisture  
Dew Point 22 °F    
Average Humidity 71    
Maximum Humidity 92    
Minimum Humidity 50    
Precipitation  
Precipitation 0.13 in 0.01 in 0.35 in (1907)
Month to date precipitation 0.13 0.01  
Year to date precipitation 0.13 0.01  
Snow  
Snow 1.80 in 0.20 in 2.90 in (1976)
Month to date snowfall 1.8 0.2  
Since 1 July snowfall 27.5 22.9  
Snow Depth T in    
Sea Level Pressure  
Sea Level Pressure 30.13 in    
Wind  
Wind Speed 11 mph (NNW)    
Max Wind Speed 26 mph    
Max Gust Speed 36 mph    
Visibility 4 miles    
Events Fog , Rain , Snow    
T = Trace of Precipitation, MM = Missing Value Source: NWS Daily Summary

Daily Weather History Graph

Daily Weather History Graph

Search for Another Location

Airport or City:

Trip Planner

Search our weather history database for the weather conditions in past years. The results will help you decide how hot, cold, wet, or windy it might be!

Date:

Astronomy

Jan. 01, 2014 Rise Set
Actual Time 7:24 AM MST 4:41 PM MST
Civil Twilight 6:53 AM MST 5:12 PM MST
Nautical Twilight 6:19 AM MST 5:46 PM MST
Astronomical Twilight 5:45 AM MST 6:20 PM MST
Moon 7:16 AM MST (1/1) 5:30 PM MST (1/1)
Length of Visible Light 10h 18m
Length of Day
9h 16m
New Moon, 0% of the Moon is Illuminated
Jan 1
New Moon
Jan 7
First Quarter
Jan 15
Full
Jan 23
Last Quarter
Jan 30
New

Hourly Weather History & Observations

Time (MST) Temp. Windchill Dew Point Humidity Pressure Visibility Wind Dir Wind Speed Gust Speed Precip Events Conditions
12:53 AM 37.9 °F - 23.0 °F 55% 29.85 in 10.0 mi Calm Calm - N/A   Overcast
1:53 AM 37.9 °F 30.0 °F 24.1 °F 57% 29.84 in 10.0 mi WNW 12.7 mph - 0.00 in Rain Light Rain
2:53 AM 35.1 °F 25.5 °F 28.0 °F 76% 29.87 in 8.0 mi NNW 15.0 mph 24.2 mph 0.00 in   Overcast
3:53 AM 33.1 °F 22.6 °F 28.0 °F 82% 29.91 in 9.0 mi NNW 16.1 mph 24.2 mph 0.00 in   Overcast
4:13 AM 32.0 °F 20.8 °F 28.4 °F 87% 29.93 in 1.8 mi NNW 17.3 mph 24.2 mph 0.00 in Snow Light Snow
4:18 AM 30.2 °F 18.9 °F 28.4 °F 93% 29.93 in 0.8 mi North 16.1 mph 24.2 mph 0.00 in Snow Light Snow
4:35 AM 28.4 °F 19.1 °F 28.4 °F 100% 29.94 in 0.8 mi North 10.4 mph 23.0 mph 0.02 in Snow Light Snow
4:39 AM 28.4 °F 18.0 °F 28.4 °F 100% 29.95 in 1.0 mi North 12.7 mph - 0.02 in Snow Light Snow
4:53 AM 28.9 °F 18.2 °F 28.0 °F 96% 29.97 in 1.0 mi North 13.8 mph - 0.03 in Snow Light Snow
5:17 AM 28.4 °F 19.7 °F 26.6 °F 93% 29.96 in 1.5 mi North 9.2 mph 19.6 mph 0.01 in Snow Light Snow
5:27 AM 28.4 °F 16.6 °F 26.6 °F 93% 29.97 in 2.5 mi North 16.1 mph 20.7 mph 0.01 in Snow Light Snow
5:39 AM 28.4 °F 17.5 °F 26.6 °F 93% 29.98 in 3.0 mi North 13.8 mph 23.0 mph 0.01 in Snow Light Snow
5:53 AM 28.0 °F 16.5 °F 26.1 °F 92% 30.01 in 2.5 mi North 15.0 mph 24.2 mph 0.01 in Snow Light Snow
6:09 AM 28.4 °F 18.0 °F 26.6 °F 93% 30.00 in 2.5 mi North 12.7 mph 20.7 mph 0.00 in Snow Light Snow
6:53 AM 28.0 °F 16.5 °F 25.0 °F 88% 30.06 in 2.0 mi North 15.0 mph 25.3 mph 0.00 in Snow Light Snow
7:37 AM 26.6 °F 15.2 °F 24.8 °F 93% 30.05 in 6.0 mi North 13.8 mph 21.9 mph 0.00 in Snow Light Snow
7:53 AM 27.0 °F 17.3 °F 25.0 °F 92% 30.09 in 7.0 mi North 10.4 mph - 0.00 in   Overcast
8:37 AM 26.6 °F 17.5 °F 24.8 °F 93% 30.08 in 2.0 mi North 9.2 mph - 0.00 in Snow Light Snow
8:48 AM 28.4 °F 18.5 °F 24.8 °F 86% 30.08 in 1.5 mi North 11.5 mph - 0.00 in Snow Light Snow
8:53 AM 28.0 °F 19.3 °F 25.0 °F 88% 30.12 in 1.5 mi North 9.2 mph - 0.00 in Snow Light Snow
9:11 AM 28.4 °F 20.4 °F 24.8 °F 86% 30.09 in 1.5 mi North 8.1 mph - 0.00 in Snow Light Snow
9:34 AM 28.4 °F 20.4 °F 26.6 °F 93% 30.10 in 0.5 mi North 8.1 mph - 0.01 in Snow Light Snow
9:46 AM 28.4 °F 22.2 °F 26.6 °F 93% 30.10 in 1.0 mi North 5.8 mph - 0.01 in Snow Light Snow
9:53 AM 28.9 °F 20.4 °F 25.0 °F 85% 30.15 in 1.0 mi North 9.2 mph - 0.02 in Snow Light Snow
10:00 AM 28.4 °F 20.4 °F 24.8 °F 86% 30.11 in 1.5 mi NNW 8.1 mph - 0.00 in Snow Light Snow
10:33 AM 28.4 °F 18.5 °F 26.6 °F 93% 30.12 in 0.2 mi NW 11.5 mph 17.3 mph 0.00 in Fog , Snow Heavy Snow
10:42 AM 28.4 °F 21.2 °F 26.6 °F 93% 30.12 in 0.2 mi NW 6.9 mph 17.3 mph 0.01 in Fog , Snow Heavy Snow
10:53 AM 28.9 °F 21.1 °F 27.0 °F 92% 30.15 in 0.2 mi NW 8.1 mph - 0.02 in Snow Light Snow
11:01 AM 30.2 °F 23.4 °F 26.6 °F 86% 30.11 in 1.5 mi WNW 6.9 mph - 0.00 in Snow Light Snow
11:05 AM 30.2 °F 21.9 °F 26.6 °F 86% 30.11 in 9.0 mi WNW 9.2 mph - 0.00 in   Overcast
11:53 AM 30.9 °F 20.7 °F 23.0 °F 72% 30.13 in 10.0 mi NW 13.8 mph 23.0 mph 0.00 in   Overcast
12:05 PM 28.4 °F 15.1 °F 24.8 °F 86% 30.12 in 0.5 mi NW 20.7 mph 34.5 mph 0.00 in Fog , Snow Snow
12:07 PM 28.4 °F 16.2 °F 24.8 °F 86% 30.11 in 0.2 mi NW 17.3 mph 34.5 mph 0.00 in Fog , Snow Snow
12:11 PM 28.4 °F 17.5 °F 24.8 °F 86% 30.11 in 0.5 mi NW 13.8 mph 25.3 mph 0.00 in Fog , Snow Light Snow
12:15 PM 28.4 °F 16.6 °F 24.8 °F 86% 30.11 in 1.0 mi NW 16.1 mph 25.3 mph 0.00 in Snow Light Snow
12:24 PM 30.2 °F 17.4 °F 23.0 °F 75% 30.11 in 2.0 mi WNW 20.7 mph 27.6 mph 0.00 in   Overcast
12:31 PM 30.2 °F 18.9 °F 23.0 °F 75% 30.11 in 10.0 mi NW 16.1 mph 29.9 mph 0.00 in   Overcast
12:49 PM 28.4 °F 13.5 °F 23.0 °F 80% 30.12 in 0.5 mi North 26.5 mph 33.4 mph 0.00 in Snow Light Snow
12:53 PM 27.0 °F 12.2 °F 21.9 °F 81% 30.17 in 0.5 mi North 24.2 mph 33.4 mph 0.00 in Snow Light Snow
1:15 PM 26.6 °F 13.1 °F 21.2 °F 80% 30.14 in 2.0 mi North 19.6 mph 31.1 mph 0.00 in Snow Light Snow
1:18 PM 26.6 °F 14.3 °F 21.2 °F 80% 30.14 in 0.5 mi North 16.1 mph 29.9 mph 0.00 in Snow Light Snow
1:44 PM 24.8 °F 12.4 °F 21.2 °F 86% 30.15 in 0.2 mi North 15.0 mph 26.5 mph 0.00 in Fog , Snow Snow
1:53 PM 24.1 °F 13.1 °F 19.9 °F 84% 30.23 in 0.2 mi North 11.5 mph 23.0 mph 0.00 in Fog , Snow Light Snow
2:03 PM 24.8 °F 11.9 °F 19.4 °F 80% 30.16 in 1.5 mi North 16.1 mph 20.7 mph 0.00 in Snow Light Snow
2:11 PM 24.8 °F 12.9 °F 19.4 °F 80% 30.16 in 2.0 mi North 13.8 mph 24.2 mph 0.00 in Snow Light Snow
2:18 PM 24.8 °F 12.4 °F 19.4 °F 80% 30.17 in 1.8 mi North 15.0 mph 19.6 mph 0.00 in Snow Light Snow
2:26 PM 24.8 °F 12.4 °F 19.4 °F 80% 30.17 in 3.0 mi North 15.0 mph - 0.00 in Snow Light Snow
2:33 PM 24.8 °F 14.0 °F 19.4 °F 80% 30.18 in 1.8 mi North 11.5 mph 23.0 mph 0.00 in Snow Light Snow
2:44 PM 23.0 °F 11.1 °F 19.4 °F 86% 30.18 in 0.5 mi North 12.7 mph 21.9 mph 0.00 in Fog , Snow Snow
2:48 PM 23.0 °F 11.7 °F 19.4 °F 86% 30.18 in 0.2 mi North 11.5 mph 21.9 mph 0.01 in Fog , Snow Snow
2:53 PM 23.0 °F 12.4 °F 19.9 °F 88% 30.29 in 0.5 mi North 10.4 mph - 0.01 in Fog , Snow Snow
2:59 PM 24.8 °F 14.0 °F 19.4 °F 80% 30.19 in 1.0 mi North 11.5 mph - 0.00 in Snow Light Snow
3:06 PM 23.0 °F 13.1 °F 19.4 °F 86% 30.19 in 0.8 mi North 9.2 mph - 0.00 in Snow Light Snow
3:13 PM 24.8 °F 14.6 °F 19.4 °F 80% 30.19 in 1.0 mi North 10.4 mph 18.4 mph 0.00 in Snow Light Snow
3:16 PM 24.8 °F 12.4 °F 19.4 °F 80% 30.20 in 3.0 mi North 15.0 mph 19.6 mph 0.00 in Snow Light Snow
3:36 PM 24.8 °F 14.0 °F 19.4 °F 80% 30.21 in 10.0 mi NNW 11.5 mph 16.1 mph 0.00 in   Overcast
3:53 PM 24.1 °F 14.4 °F 19.0 °F 81% 30.31 in 10.0 mi North 9.2 mph - 0.00 in   Overcast
4:53 PM 23.0 °F 14.7 °F 19.0 °F 85% 30.34 in 10.0 mi NW 6.9 mph - N/A   Overcast
5:53 PM 25.0 °F 13.1 °F 16.0 °F 69% 30.34 in 10.0 mi NW 13.8 mph - N/A   Mostly Cloudy
6:53 PM 23.0 °F 11.1 °F 15.1 °F 72% 30.35 in 10.0 mi NW 12.7 mph - N/A   Clear
7:53 PM 24.1 °F 13.7 °F 15.1 °F 69% 30.35 in 10.0 mi NW 10.4 mph - N/A   Clear
8:53 PM 16.0 °F 4.4 °F 10.0 °F 77% 30.38 in 10.0 mi WNW 9.2 mph - N/A   Clear
9:53 PM 15.1 °F 7.7 °F 9.0 °F 77% 30.38 in 10.0 mi WNW 4.6 mph - N/A   Clear
10:53 PM 12.0 °F -0.4 °F 6.1 °F 77% 30.38 in 10.0 mi WNW 9.2 mph - N/A   Clear
11:53 PM 12.0 °F 0.5 °F 5.0 °F 73% 30.34 in 10.0 mi WNW 8.1 mph - N/A   Clear